Flag for Kuwait Weather past 2 weeks in Kuwait City, Kuwait

Now
104 °F

Sunny.


Feels Like: 99 °F
Forecast: 83 / 105 °F
Wind: 3 mph from North

Location: Kuwait International Airport

Current Time: Sep 21, 2014 at 10:10:49 AM

Latest Report: Sep 21, 2014 at 10:00 AM


Visibility: 5 mi

Pressure: 29.71 "Hg

Humidity: 12%

Dew point: 43 °F

Location of Kuwait CityLocation

Historic Weather in Kuwait City — Graph

°F

Kuwait City temperature yesterday

Maximum temperature yesterday: 109 °F (at 3:00 PM)
Minimum temperature yesterday: 77 °F (at 6:00 AM)
Average temperature yesterday: 93 °F

Past Weeks' High & Low Weather Summary

 TemperatureHumidityPressure
High115 °F (Sep 7, 2:00 PM)46% (Sep 16, 10:00 PM)29.86 "Hg (Sep 16, 10:00 PM)
Low75 °F (Sep 21, 4:00 AM)8% (Sep 10, 3:30 PM)29.53 "Hg (Sep 6, 3:00 PM)
Average98 °F18%29.66 "Hg
* Reported Sep 6 8:00 AM — Sep 21 8:00 AM, Kuwait City, Weather by CustomWeather, © 2014

Note: Actual official high and low records may vary slightly from our data, if they occured in-between our weather recording intervals... More about our weather records

Advertising

Kuwait City weather history for previous 24 hours

 ConditionsComfort  
Time TempWeatherWind HumidityBarometerVisibility
8:00 AM
Sep 21
91 °FSunny.8 mph15%29.68 "Hg10 mi
7:00 AM84 °FSunny.3 mph16%29.68 "Hg5 mi
6:00 AM75 °FSunny.6 mph24%29.65 "Hg10 mi
5:00 AM75 °FClear.No wind24%29.65 "Hg10 mi
4:00 AM75 °FClear.3 mph25%29.62 "Hg10 mi
3:00 AM113 °FClear.3 mph8%29.62 "Hg10 mi
2:00 AM77 °FClear.7 mph28%29.65 "Hg10 mi
1:00 AM79 °FClear.6 mph30%29.62 "Hg4 mi
12:00 AM79 °FClear.6 mph30%29.65 "Hg4 mi
11:00 PM
Sep 20
84 °FClear.6 mph25%29.65 "Hg4 mi
10:00 PM84 °FClear.5 mph23%29.65 "Hg4 mi
9:00 PM88 °FClear.6 mph24%29.68 "Hg4 mi
8:00 PM90 °FClear.7 mph21%29.65 "Hg10 mi
4:00 PM108 °FSunny.7 mph8%29.65 "Hg10 mi
3:00 PM109 °FSunny.9 mph8%29.65 "Hg10 mi
2:00 PM108 °FSunny.7 mph8%29.68 "Hg10 mi
1:00 PM106 °FSunny.8 mph9%29.68 "Hg10 mi
12:00 PM106 °FSunny.10 mph9%29.71 "Hg10 mi
11:00 AM104 °FSunny.7 mph12%29.74 "Hg10 mi
10:00 AM99 °FSunny.7 mph17%29.74 "Hg10 mi
Weather by CustomWeather, © 2014

See weather overviewHow to use our weather pages